Torna al catalogo

GALAXY 36

AttivoComunicazioniGEO
NORAD 54742·PAYLOAD·🇺🇸 United States

Lanciato Dec 13, 2022 da Guiana Space Centre

Loading…

TLE

AggiornatoSource: CelesTrak SupGP

Epoca: Sep 14, 2026, 00:00 UTC

1 54742C 22170B   26257.00000000 -.00000095  00000+0  00000+0 0  2576
2 54742   0.0135 159.1052 0002206 323.5805 141.3037  1.00272480    16

Traccia GALAXY 36 in tempo reale con AllMySat

Download on the App Store